Location: Penticton
(49.5000°N, 119.5830°W)
Time: 18:39:45
(UTC-07:00)

Daily predictions for brighter satellites

Satellite Brightness Start Highest point End
(mag) Time Altitude Azimuth Time Altitude Azimuth Time Altitude Azimuth
Cosmos 220 Rocket 4.3 20:29:11 10° NNW 20:33:36 57° ENE 20:37:59 10° SE
Meteor 1-27 4.4 20:29:29 10° SSW 20:35:05 81° WNW 20:40:41 10° N
Cosmos 1400 Rocket 3.8 20:32:37 10° NNW 20:36:23 48° W 20:40:09 10° S
Cosmos 1892 3.8 20:38:09 10° NNW 20:41:49 47° W 20:45:27 10° SSW
SeaSat 1 3.4 20:40:35 10° ESE 20:45:00 34° NE 20:49:26 10° NNW
Cosmos 2026 Rocket 4.1 20:39:37 10° N 20:45:52 63° ENE 20:51:59 10° SSE
Cosmos 1697 Rocket 3.1 20:42:12 10° SW 20:47:49 70° WNW 20:53:29 10° NNE
USA 186 2.4 20:45:17 10° S 20:47:56 50° W 20:50:48 10° NNW
CENTAUR R/B 2.8 20:42:02 10° SW 20:48:15 82° NW 20:55:26 10° NE
Cosmos 1315 Rocket 3.3 20:44:49 10° NNW 20:48:54 67° W 20:52:56 10° S
Cosmos 1933 4.5 20:51:22 10° SE 20:54:41 25° E 20:58:00 10° NNE
Abrixas rocket 3.1 20:51:59 10° SW 20:54:54 29° SSE 20:57:49 10° E
Cosmos 1503 Rocket 4.0 20:51:52 10° NNW 20:57:12 85° ENE 21:02:26 10° SSE
CZ-3B DEB 4.1 20:56:12 10° W 20:57:23 11° WSW 20:58:26 10° SW
Cosmos 1867 4.3 20:53:12 10° NNW 20:58:25 42° NE 21:03:20 11° ESE
YAOGAN 6 3.0 20:54:57 10° SE 20:58:27 45° ENE 21:01:57 10° N
Cosmos 1354 Rocket 4.1 20:55:15 10° NNW 21:00:35 90° WNW 21:05:52 10° SSE
Cosmos 2263 Rocket 2.3 20:55:20 10° NNW 21:00:52 61° ENE 21:06:05 11° SE
Cosmos 1707 Rocket 3.8 20:59:19 10° SSW 21:03:45 76° W 21:08:12 10° N
Meteor 1-29 2.9 21:02:34 10° NNE 21:06:03 66° ESE 21:09:30 10° S
Cosmos 1733 Rocket 3.1 21:02:22 10° N 21:06:49 65° ENE 21:11:15 10° SSE
Cosmos 1655 Rocket 4.1 21:01:38 10° N 21:08:05 75° E 21:14:27 10° SSE
H-2A R/B 3.4 21:04:41 11° ESE 21:08:14 23° ENE 21:12:04 10° N
Cosmos 1634 Rocket 4.1 21:02:17 10° S 21:08:35 87° E 21:14:59 10° N
Cosmos 2322 Rocket 2.5 21:03:18 10° S 21:08:36 44° ESE 21:13:55 10° NE
Terra 3.9 21:06:22 10° E 21:08:49 14° NE 21:11:16 10° NNE
Helios 1B rocket 2.4 21:05:01 10° NNE 21:09:08 86° ESE 21:13:15 10° SSW
Lacrosse 4 Rocket 1.7 21:07:38 10° NW 21:11:55 72° WSW 21:16:01 12° SSE
Cosmos 1825 2.3 21:09:55 10° NNW 21:13:43 79° W 21:17:31 10° S
Cosmos 1862 3.3 21:11:50 10° N 21:15:52 76° E 21:19:52 10° SSE
Cosmos 1862 Rocket 3.9 21:12:25 10° SSE 21:16:43 48° E 21:21:03 10° NNE
Meteor 2-10 Rocket 4.4 21:12:14 10° SSE 21:17:27 35° E 21:22:41 10° NNE
Cosmos 2360 Rocket 3.3 21:15:51 11° SSE 21:19:53 24° ESE 21:24:16 10° NE
Cosmos 1980 Rocket 2.7 21:14:45 10° SW 21:20:24 65° WNW 21:26:07 10° NNE
BREEZE-M DEB (TANK) 4.4 21:16:21 10° W 21:21:17 68° S 21:42:21 10° ESE
USA 267 3.7 21:15:43 10° ENE 21:22:13 67° NNW 21:28:41 10° WSW
Cosmos 968 Rocket 3.9 21:17:37 10° NNW 21:22:40 49° ENE 21:26:25 18° SE
CZ-4B DEB 4.2 21:21:56 10° SSW 21:24:45 34° W 21:27:36 10° NNW
Cosmos 1939 Rocket 3.7 21:22:48 10° S 21:26:46 51° W 21:30:43 10° NNW
NOAA 11 4.3 21:24:37 14° SSE 21:29:23 67° ENE 21:34:50 10° N
Envisat 3.9 21:25:38 10° S 21:30:31 48° W 21:35:27 10° NNW
Cosmos 2242 Rocket 3.7 21:26:15 10° SSW 21:30:47 80° W 21:35:17 10° N
YAOGAN 11 4.2 21:27:47 17° SSE 21:31:04 61° ENE 21:35:22 10° N
Okean 1-7 4.5 21:32:09 19° ESE 21:33:22 21° E 21:36:40 10° NE
Cosmos 2266 Rocket 4.2 21:27:32 10° N 21:33:39 54° ENE 21:38:21 18° SSE
SL-16 R/B 2.1 21:29:56 10° SSW 21:35:33 69° ESE 21:41:13 10° NNE
Cosmos 1703 Rocket 4.4 21:34:29 21° SE 21:36:35 32° E 21:40:31 10° NNE
SPOT 5 3.0 21:34:05 19° SE 21:37:31 60° ENE 21:42:07 10° N
CZ-4C R/B 4.0 21:31:53 10° NW 21:37:46 33° NNE 21:44:22 10° E
Intercosmos 25 Rocket 3.8 21:38:50 10° SSW 21:42:02 58° WNW 21:46:15 10° N
ATLAS 5 CENTAUR R/B 2.4 21:37:15 10° NW 21:43:07 87° NE 21:47:28 22° SE
MetOp-B 4.1 21:44:34 17° SSE 21:48:49 90° WSW 21:54:12 10° NNW
Cosmos 2279 Rocket 4.1 21:44:41 10° SSW 21:50:56 78° W 21:57:13 10° N
Cosmos 2278 Rocket 3.8 21:47:57 10° N 21:52:25 23° NE 21:56:09 13° E
Meteor 1-26 Rocket 4.3 21:48:41 15° S 21:53:19 57° E 21:59:00 10° NNE
SPOT 1/Viking Rocket 3.7 21:52:06 24° SE 21:55:12 63° ENE 22:00:23 10° N
ARGOS 3.1 21:53:21 21° SSE 21:57:01 84° ENE 22:02:25 10° NNW
Atlas Centaur 2 4.4 21:55:51 10° SSW 21:59:34 16° S 21:59:34 16° S
Cosmos 1844 Rocket 3.2 21:59:14 10° NNW 22:04:38 47° NE 22:07:24 26° ESE
Sich 1 Rocket 3.8 22:01:47 10° NNW 22:06:14 72° W 22:08:57 23° S
ERS-1 Rocket 3.9 22:02:11 11° S 22:06:46 44° W 22:11:36 10° NNW
MOS 1-B Rocket 4.0 22:16:43 23° S 22:20:37 73° WSW 22:26:16 10° NNW
Cosmos 1777 Rocket 4.0 22:15:52 10° NNW 22:21:11 75° ENE 22:23:18 37° SE
Meteor 1-14 Rocket 4.3 22:15:46 10° NNW 22:21:23 75° W 22:24:46 25° S
SeaSat 1 3.1 22:19:46 25° S 22:22:24 48° WSW 22:27:11 10° NW
H-2A R/B 2.2 22:21:27 43° SE 22:22:34 59° ENE 22:26:51 10° N
Cosmos 1908 Rocket 4.3 22:18:46 10° NNW 22:22:57 48° W 22:25:26 22° SSW
Cosmos 2219 Rocket 3.6 22:27:00 21° E 22:27:00 21° E 22:30:26 10° NE
Landsat 7 3.7 22:29:02 41° SSE 22:30:42 84° ENE 22:35:29 10° NNW
Abrixas rocket 2.7 22:28:10 10° WSW 22:30:44 49° WSW 22:30:44 49° WSW
Cosmos 1782 Rocket 4.0 22:32:37 10° NNW 22:36:54 58° W 22:38:32 35° SSW
Okean 2 Rocket 3.1 22:33:04 10° NNW 22:37:37 78° W 22:38:59 45° S
DMSP B5D2-2 4.2 22:32:46 10° NNE 22:37:58 56° E 22:39:21 43° SSE
Cosmos 2237 4.3 22:37:21 37° SSE 22:39:22 56° ESE 22:44:58 10° NE
CZ-4C R/B 4.3 22:39:34 32° ENE 22:39:36 32° ENE 22:42:56 10° N
CENTAUR R/B 4.4 22:34:03 10° W 22:40:00 34° NNW 22:46:40 10° NE
Meteor 1-25 Rocket 4.3 22:34:51 10° NNW 22:40:28 71° W 22:43:00 33° S
Cosmos 1867 4.2 22:36:54 10° NW 22:42:05 45° WSW 22:44:01 32° SSW
Iridium 4 Rocket 3.9 22:40:18 10° NNE 22:44:04 33° ENE 22:44:04 33° ENE
Cosmos 2263 Rocket 3.9 22:39:55 10° NW 22:44:23 25° WSW 22:47:48 14° SSW
USA 229 DEB 3.7 22:39:03 15° SSW 22:44:41 58° ESE 22:51:29 10° NE
USA 229 3.7 22:39:20 16° SSW 22:44:46 58° ESE 22:51:35 10° NE
Spot 4 4.2 22:44:31 43° ESE 22:45:27 49° ENE 22:50:04 10° N
Terra 1.7 22:44:38 51° SSE 22:45:50 83° ENE 22:50:37 10° NNW
Cosmos 1300 Rocket 4.3 22:42:20 10° N 22:46:22 36° ENE 22:46:35 36° E
H-2A R/B 2.3 22:45:18 34° SSW 22:47:19 59° WSW 22:52:14 10° NNW
COSMOS 2428 2.9 22:46:58 45° SE 22:48:01 51° ESE 22:53:32 10° NE
IGS 5A 3.3 22:48:08 68° SSE 22:48:37 83° ENE 22:52:48 10° NNW
CZ-4 R/B 4.2 22:46:57 10° NNE 22:51:33 46° E 22:51:39 46° ESE
Cosmos 2322 Rocket 3.6 22:47:33 10° WSW 22:52:45 38° NW 22:57:59 10° NNE
Cosmos 1606 2.8 23:03:14 70° NNE 23:03:14 70° NNE 23:06:39 10° NNE
Cosmos 2360 Rocket 2.5 22:57:46 10° SW 23:03:23 66° WNW 23:09:04 10° NNE
Cosmos 1844 3.6 22:58:30 10° NNW 23:04:15 88° WSW 23:05:37 54° SSE
USA 267 4.2 22:58:33 10° ENE 23:04:45 47° N 23:10:56 10° WNW
deb Chang Zheng 4 3.4 23:00:28 10° NNE 23:04:54 83° ESE 23:05:16 74° S
Geosat 3.8 23:01:52 10° NNE 23:06:57 81° ESE 23:08:19 49° SSW
Cosmos 1745 Rocket 4.0 23:01:17 10° N 23:07:36 69° ENE 23:09:23 48° SE
Cosmos 2322 3.9 23:04:16 14° SW 23:09:09 69° WNW 23:14:52 10° NNE
Cosmos 1417 Rocket 4.4 23:08:23 45° S 23:10:28 79° E 23:16:50 10° NNE
Okean 1-7 4.0 23:09:00 31° SW 23:10:39 45° WNW 23:14:55 10° N
Cosmos 1782 3.0 23:10:30 65° WSW 23:10:44 67° WNW 23:14:45 10° N
Cosmos 2151 Rocket 3.6 23:06:25 10° NNW 23:10:50 72° W 23:11:14 67° SW
ASTEX 1 3.5 23:09:53 55° SSW 23:10:57 75° W 23:15:58 10° N
SL-16 R/B 4.3 23:15:10 12° E 23:15:10 12° E 23:16:20 10° ENE
DELTA 2 DEB (DPAF) 4.0 23:14:39 80° SE 23:14:52 85° ENE 23:19:24 10° NNW
Meteor 2-6 Rocket 4.3 23:13:50 46° S 23:15:45 89° E 23:21:45 10° NNE
Cosmos 1570 Rocket 4.1 23:17:17 55° ESE 23:17:17 55° ESE 23:22:25 10° NNE
SL-16 R/B 4.2 23:15:22 10° WSW 23:20:10 27° NW 23:25:01 10° NNE
Cosmos 2208 Rocket 4.2 23:21:18 55° ESE 23:21:18 55° ESE 23:26:27 10° NNE
Cosmos 1633 3.2 23:18:01 10° NNW 23:21:07 52° NW 23:21:07 52° NW
CZ-4B R/B 3.2 23:16:53 10° NNE 23:21:40 74° ESE 23:21:47 74° ESE
CZ-2C R/B 4.1 23:26:39 29° ENE 23:27:11 30° ENE 23:31:25 10° N
CZ-4C R/B 2.8 23:20:22 10° NW 23:27:19 80° NE 23:30:05 43° SE
ATLAS 5 CENTAUR R/B 3.9 23:22:44 10° WNW 23:27:23 23° WSW 23:29:01 21° SW
Meteor 2-11 Rocket 4.4 23:27:27 57° SE 23:28:31 68° E 23:34:35 10° NNE
Cosmos 2333 Rocket 2.5 23:28:48 50° ESE 23:28:48 50° ESE 23:34:13 10° NE
Cosmos 2333 4.1 23:29:22 51° SSW 23:30:55 90° ESE 23:36:44 10° NNE
ATLAS 3B R/B 3.9 23:26:39 10° NW 23:33:03 36° NNE 23:38:26 13° E
Cosmos 1346 Rocket 3.3 23:34:18 54° NNE 23:34:18 54° NNE 23:37:27 10° NNE
Cosmos 2150 Rocket 4.3 23:28:51 10° NNW 23:34:13 57° ENE 23:34:58 52° E
Cosmos 2278 Rocket 2.0 23:31:33 10° NNW 23:37:16 87° WSW 23:37:59 69° SSE
Cosmos 2237 Rocket 2.7 23:38:24 43° E 23:38:24 43° E 23:43:13 10° NE
Cosmos 1937 Rocket 3.7 23:33:58 10° NNW 23:39:12 58° ENE 23:39:42 55° E
Okean 1 Rocket 3.1 23:35:21 10° N 23:39:28 77° N 23:39:28 77° N
Cosmos 2084 4.2 23:41:15 10° NW 23:43:54 42° WNW 23:43:54 42° WNW
Meteor 1-27 Rocket 3.7 23:44:16 60° SSW 23:45:20 80° WNW 23:50:58 10° N
Meteor 1-5 Rocket 4.1 23:41:07 10° N 23:46:44 84° ENE 23:47:21 71° SSE
Cosmos 858 Rocket 4.4 23:42:45 10° NNW 23:48:01 79° ENE 23:48:16 77° ESE
Cosmos 1844 Rocket 3.7 23:43:25 10° NW 23:48:23 33° WSW 23:49:04 32° WSW
Cosmos 2315 Rocket 4.3 23:48:18 47° ESE 23:48:51 49° E 23:54:48 10° NNE
Cosmos 1674 Rocket 3.8 23:50:47 64° NW 23:50:47 64° NW 23:54:48 10° N
